User: anonymous   Login
Location: Coleto Creek Park and Reservoir
(28.7196°N, 97.1740°W)
Time: 01:24:58
(UTC-05:00)
Language:

Hubble Space Telescope - Orbit

View from above orbital plane
View from above orbital plane
View from above satellite
View from above satellite

Ground track
Ground track

The orbit data is extracted from the following two-line orbital elements,

1 20580U 90037B   17264.58639479 +.00000554 +00000-0 +23126-4 0  9997
2 20580 028.4696 090.4975 0002846 127.2797 295.5993 15.08855282304778
Epoch (UTC): 21 September 2017 14:04:24
Eccentricity: 0.0002846
inclination: 28.4696°
perigee height: 538 km
apogee height: 541 km
right ascension of ascending node: 90.4975°
argument of perigee: 127.2797°
revolutions per day: 15.08855282
mean anomaly at epoch: 295.5993°
orbit number at epoch: 30477

The dashed part of the orbit path shows where the satellite is in the earth's shadow,  

DLR